[[{"header":{"parameterUnit":"m.s-1","parameterCategory":1,"la1":30.2991,"la2":30.254,"lo1":-89.0895,"lo2":-89.0444,"dy":0.0017,"dx":0.0017,"nx":28,"ny":28,"refTime":"2025-03-26T03:00:00:Z","depth":0,"parameterNumber":2,"parameterNumberName":"U-component_of_WINDS"},"data":[0,0,0,0,0,0,0,0,0,0,0,0,0,0,0,0,0,0,0,0,0,0,0,0,0,0,0,0,0,0,0,0,0,0,0,0,0,0,0,0,0,0,0,0,0,0,0,0,0,0,0,0,0,0,0,0,0,0,-1.0578,-1.0578,0,-1.0577,-1.0577,-1.0577,-1.0555,-1.0554,-1.0553,-1.0553,-1.0552,-1.0552,-1.0553,0,0,0,0,0,0,0,0,0,0,0,0,0,-1.0563,-1.0563,-1.0578,-1.0578,-1.0578,-1.0577,-1.0577,-1.0577,-1.0555,-1.0554,-1.0553,-1.0553,-1.0552,-1.0552,-1.0553,0,0,0,0,0,0,0,0,0,0,0,0,0,-1.0566,-1.0564,-1.0578,-1.0567,-1.0566,-1.0577,-1.0577,-1.0577,-1.0555,-1.0554,-1.0553,-1.0552,-1.0551,-1.0552,-1.0553,-1.0574,0,0,-1.0555,-1.0555,0,0,0,0,0,0,0,0,-1.0566,-1.0567,-1.0569,-1.0568,-1.0567,-1.0565,-1.0571,-1.0576,-1.0555,-1.0559,-1.0553,-1.0552,-1.0557,-1.0557,-1.0559,-1.0574,-1.0574,-1.0555,-1.0556,-1.0556,-1.0556,0,0,0,0,0,0,0,-1.0566,-1.0567,-1.0578,-1.0569,-1.0567,-1.0562,-1.0562,-1.0572,-1.0563,-1.0559,-1.0557,-1.0557,-1.0556,-1.0558,-1.0559,-1.0574,-1.0555,-1.0556,-1.0556,-1.0557,-1.0609,-1.061,0,0,0,0,0,0,-1.0567,-1.0567,-1.0578,-1.0577,-1.0564,-1.0563,-1.0563,-1.0566,-1.0563,-1.0561,-1.0558,-1.0556,-1.0557,-1.0558,-1.0558,-1.0584,-1.0556,-1.0557,-1.0557,-1.0608,-1.0609,-1.061,0,0,0,0,0,0,-1.0567,-1.0568,-1.0578,-1.0572,-1.0573,-1.0565,-1.0569,-1.0567,-1.0569,-1.0562,-1.056,-1.0561,-1.0557,-1.0557,-1.0571,-1.0583,-1.0557,-1.0558,-1.0607,-1.0608,-1.0609,-1.0634,0,0,0,0,0,0,-1.0567,-1.0568,-1.0576,-1.0572,-1.0573,-1.059,-1.0569,-1.0567,-1.057,-1.0568,-1.0565,-1.0564,-1.0556,-1.057,-1.0572,-1.0584,-1.0558,-1.0605,-1.0607,-1.0609,-1.0632,-1.0636,-1.064,0,0,0,0,0,-1.0566,-1.0583,-1.0577,-1.0578,-1.0582,-1.059,-1.0591,-1.0582,-1.0571,-1.0579,-1.0575,-1.0564,-1.0582,-1.0571,-1.0573,-1.0586,-1.0605,-1.0607,-1.0609,-1.063,-1.0635,-1.064,0,0,0,0,0,0,-1.0588,-1.0582,-1.0575,-1.0591,-1.0591,-1.0587,-1.0596,-1.0587,-1.0591,-1.0588,-1.0577,-1.0577,-1.0592,-1.059,-1.0579,-1.0607,-1.0591,-1.0594,-1.0607,-1.0612,-1.0616,-1.0615,-1.0559,0,0,0,0,0,-1.0595,-1.0602,-1.0596,-1.0611,-1.0612,-1.0604,-1.0607,-1.06,-1.06,-1.06,-1.0597,-1.0598,-1.0604,-1.0608,-1.0613,-1.0632,-1.0632,-1.0642,-1.0646,-1.0649,-1.0651,-1.0662,-1.0667,-1.0617,-1.0617,-1.0617,0,0,-1.0609,-1.0606,-1.0611,-1.0615,-1.0615,-1.0623,-1.0604,-1.0613,-1.0619,-1.0602,-1.0614,-1.0612,-1.0612,-1.0629,-1.0636,-1.0628,-1.0665,-1.0652,-1.0654,-1.0655,-1.0665,-1.0669,-1.0673,-1.0618,-1.0618,-1.0618,0,0,-1.0638,-1.0637,-1.0649,-1.0649,-1.0649,-1.0644,-1.0647,-1.0644,-1.0642,-1.0655,-1.0643,-1.065,-1.066,-1.0661,-1.0663,-1.0694,-1.0684,-1.0696,-1.0716,-1.0726,-1.073,-1.0734,-1.0745,-1.0749,-1.0699,-1.0699,-1.0699,0,-1.0655,-1.0665,-1.0656,-1.0666,-1.0669,-1.0654,-1.0667,-1.0668,-1.0669,-1.0672,-1.0663,-1.0676,-1.0675,-1.0692,-1.07,-1.0702,-1.0706,-1.0696,-1.073,-1.0734,-1.0737,-1.0747,-1.0752,-1.07,-1.07,-1.07,-1.07,0,-1.0687,-1.0695,-1.0705,-1.0707,-1.0711,-1.0722,-1.0715,-1.072,-1.0714,-1.071,-1.0723,-1.0722,-1.0727,-1.0731,-1.0724,-1.0747,-1.0742,-1.0732,-1.0716,-1.0743,-1.0753,-1.0757,-1.0702,-1.0702,-1.0701,-1.0701,0,0,-1.0728,-1.0726,-1.073,-1.0731,-1.0731,-1.0737,-1.0748,-1.0753,-1.0758,-1.076,-1.0769,-1.0779,-1.077,-1.0773,-1.0766,-1.0776,-1.0801,-1.0764,-1.0764,-1.0771,-1.0827,-1.0834,-1.0839,-1.0795,-1.0796,-1.0796,-1.0827,0,-1.0756,-1.0774,-1.0767,-1.0786,-1.0794,-1.0781,-1.0791,-1.0792,-1.079,-1.0796,-1.0794,-1.0801,-1.0789,-1.079,-1.0799,-1.0796,-1.0812,-1.0794,-1.0804,-1.0804,-1.0803,-1.0844,-1.0851,-1.0879,-1.083,-1.0831,-1.0832,0,-1.079,-1.0794,-1.0814,-1.0813,-1.0816,-1.0825,-1.083,-1.0836,-1.0838,-1.0835,-1.0839,-1.0831,-1.0843,-1.0828,-1.0844,-1.0832,-1.0836,-1.0835,-1.0836,-1.0836,-1.0819,-1.0844,-1.0888,-1.0892,-1.0838,-1.0837,-1.0837,0,-1.0818,-1.0828,-1.0842,-1.0843,-1.0843,-1.0849,-1.085,-1.0851,-1.0855,-1.0859,-1.0862,-1.0867,-1.0871,-1.0876,-1.087,-1.0859,-1.0887,-1.0871,-1.0885,-1.0886,-1.0891,-1.089,-1.0936,-1.0895,-1.0895,-1.0895,-1.0894,0,-1.0849,-1.0861,-1.0854,-1.0862,-1.0877,-1.0869,-1.0883,-1.0882,-1.0884,-1.0892,-1.0882,-1.089,-1.0883,-1.089,-1.0886,-1.09,-1.0902,-1.09,-1.0899,-1.0901,-1.0901,-1.0902,-1.09,-1.0896,-1.0895,-1.0895,-1.0895,0,-1.0881,-1.0877,-1.0891,-1.089,-1.089,-1.0901,-1.09,-1.0908,-1.0906,-1.0916,-1.0918,-1.0914,-1.0923,-1.0918,-1.0927,-1.0924,-1.0943,-1.0939,-1.0942,-1.0941,-1.0955,-1.0954,-1.1002,-1.1008,-1.0964,-1.0964,-1.0965,0,-1.0901,-1.0911,-1.0911,-1.0916,-1.0917,-1.0925,-1.0929,-1.0923,-1.0928,-1.0931,-1.0939,-1.0947,-1.0953,-1.0967,-1.0965,-1.0972,-1.0968,-1.0985,-1.0969,-1.0971,-1.0968,-1.0967,-1.0968,-1.0988,-1.0988,-1.0989,-1.0989,0,-1.0937,-1.0934,-1.0941,-1.0947,-1.0952,-1.0956,-1.096,-1.0965,-1.0959,-1.0965,-1.0974,-1.0978,-1.0988,-1.0996,-1.1002,-1.1003,-1.0995,-1.0994,-1.0998,-1.0999,-1.1,-1.1,-1.095,-1.0993,-1.0992,-1.0992,-1.0992,-1.0992,-1.0963,-1.0971,-1.0973,-1.0981,-1.0983,-1.0987,-1.0995,-1.0994,-1.1001,-1.1008,-1.1004,-1.1015,-1.1018,-1.1025,-1.1027,-1.1036,-1.1029,-1.1034,-1.1036,-1.1037,-1.1038,-1.1,-1.1037,-1.1037,-1.1037,-1.1037,-1.1037,0,-1.0998,-1.0999,-1.1006,-1.1012,-1.1018,-1.1011,-1.1015,-1.1021,-1.103,-1.1033,-1.104,-1.105,-1.1059,-1.1058,-1.1066,-1.1073,-1.107,-1.1075,-1.1074,-1.1074,-1.1044,-1.104,-1.1078,-1.1078,-1.1078,-1.1078,-1.1078,-1.1078,-1.1016,-1.103,-1.1028,-1.1044,-1.1045,-1.1055,-1.1058,-1.1062,-1.1064,-1.1077,-1.1084,-1.1083,-1.1086,-1.1094,-1.1101,-1.1101,-1.1104,-1.1111,-1.1109,-1.1081,-1.1076,-1.1073,-1.1069,-1.1112,-1.1112,-1.1139,-1.1139,-1.1139]},{"header":{"parameterUnit":"m.s-1","parameterCategory":1,"la1":30.2991,"la2":30.254,"lo1":-89.0895,"lo2":-89.0444,"dy":0.0017,"dx":0.0017,"nx":28,"ny":28,"refTime":"2025-03-26T03:00:00:Z","depth":0,"parameterNumber":3,"parameterNumberName":"V-component_of_WINDS"},"data":[0,0,0,0,0,0,0,0,0,0,0,0,0,0,0,0,0,0,0,0,0,0,0,0,0,0,0,0,0,0,0,0,0,0,0,0,0,0,0,0,0,0,0,0,0,0,0,0,0,0,0,0,0,0,0,0,0,0,0.6943,0.6943,0,0.6933,0.6933,0.6933,0.6921,0.6921,0.6921,0.6921,0.6909,0.6909,0.6909,0,0,0,0,0,0,0,0,0,0,0,0,0,0.6953,0.6953,0.6943,0.6943,0.6943,0.6933,0.6933,0.6933,0.6921,0.6921,0.6921,0.6921,0.6909,0.6909,0.6909,0,0,0,0,0,0,0,0,0,0,0,0,0,0.6946,0.6953,0.6943,0.6936,0.6935,0.6933,0.6933,0.6933,0.6921,0.6921,0.6921,0.6921,0.6909,0.6909,0.6909,0.6913,0,0,0.6908,0.6908,0,0,0,0,0,0,0,0,0.6947,0.6946,0.6937,0.6937,0.6936,0.6928,0.6932,0.6926,0.6921,0.6927,0.6921,0.692,0.6916,0.6915,0.6914,0.6912,0.6912,0.6908,0.6908,0.6908,0.6908,0,0,0,0,0,0,0,0.6947,0.6946,0.6939,0.6937,0.6936,0.6933,0.6932,0.6931,0.6923,0.6926,0.6925,0.6924,0.6915,0.6914,0.6913,0.6911,0.6908,0.6908,0.6908,0.6908,0.6913,0.6913,0,0,0,0,0,0,0.6949,0.6947,0.6939,0.6939,0.6941,0.6933,0.6932,0.6931,0.6923,0.6921,0.6925,0.6924,0.6914,0.6914,0.6913,0.6917,0.6908,0.6908,0.6908,0.6912,0.6913,0.6913,0,0,0,0,0,0,0.6949,0.6948,0.694,0.6943,0.6941,0.6933,0.6932,0.6931,0.6929,0.6921,0.692,0.6925,0.6914,0.6913,0.6913,0.6916,0.6908,0.6908,0.6912,0.6912,0.6913,0.6925,0,0,0,0,0,0,0.6949,0.6948,0.695,0.6943,0.6941,0.694,0.6932,0.6931,0.6929,0.6928,0.6921,0.692,0.6914,0.6913,0.6913,0.6916,0.6907,0.6912,0.6912,0.6913,0.6924,0.6925,0.6927,0,0,0,0,0,0.695,0.6953,0.695,0.6949,0.6943,0.6941,0.694,0.6933,0.6929,0.6931,0.6926,0.692,0.6916,0.6913,0.6913,0.6916,0.6912,0.6912,0.6913,0.6923,0.6925,0.6927,0,0,0,0,0,0,0.696,0.6952,0.6948,0.695,0.6946,0.6939,0.694,0.6935,0.6932,0.6931,0.6923,0.6922,0.6923,0.6919,0.6916,0.6919,0.6913,0.6913,0.6921,0.6923,0.6924,0.6925,0.6907,0,0,0,0,0,0.6963,0.6962,0.6955,0.6957,0.6955,0.6948,0.6947,0.6942,0.6938,0.6936,0.6931,0.6927,0.6925,0.6924,0.6921,0.6923,0.6922,0.6925,0.6926,0.6927,0.6928,0.6929,0.6931,0.6915,0.6915,0.6915,0,0,0.6968,0.6963,0.6963,0.6959,0.6955,0.6955,0.6947,0.6946,0.6945,0.6936,0.6936,0.6932,0.6927,0.6928,0.6928,0.6925,0.6932,0.6928,0.6929,0.6929,0.693,0.6932,0.6933,0.6915,0.6915,0.6915,0,0,0.6977,0.6974,0.6975,0.6972,0.6967,0.6962,0.6963,0.6956,0.6953,0.6953,0.6946,0.6945,0.6941,0.6938,0.6936,0.6945,0.6939,0.6944,0.6951,0.6952,0.6954,0.6955,0.6958,0.696,0.6944,0.6944,0.6944,0,0.6984,0.6983,0.6976,0.6976,0.6975,0.6966,0.6968,0.6965,0.6959,0.6958,0.6955,0.6951,0.6946,0.6947,0.6949,0.6947,0.6948,0.6945,0.6954,0.6955,0.6956,0.6959,0.6961,0.6945,0.6945,0.6945,0.6945,0,0.6992,0.6992,0.6993,0.6989,0.6987,0.6988,0.6981,0.698,0.6976,0.6971,0.6971,0.6966,0.6963,0.6962,0.6958,0.6962,0.6961,0.6956,0.695,0.6958,0.6961,0.6962,0.6946,0.6946,0.6946,0.6945,0,0,0.7008,0.7,0.7001,0.6999,0.6993,0.6992,0.6992,0.6989,0.6989,0.6985,0.6986,0.6983,0.6979,0.6976,0.6971,0.6972,0.698,0.6967,0.6967,0.697,0.6985,0.6989,0.6991,0.6976,0.6977,0.6977,0.6986,0,0.7017,0.7017,0.7011,0.7013,0.7013,0.7005,0.7005,0.7001,0.6997,0.6996,0.6992,0.699,0.6984,0.6983,0.6984,0.6979,0.6983,0.6978,0.6977,0.6977,0.6979,0.6992,0.6996,0.7005,0.6987,0.6987,0.6987,0,0.7027,0.7024,0.7026,0.7021,0.702,0.7021,0.7018,0.7017,0.7012,0.7009,0.7007,0.7001,0.7001,0.6996,0.6996,0.6992,0.6991,0.6989,0.6989,0.6989,0.6983,0.6993,0.7008,0.7009,0.6989,0.6989,0.6989,0,0.7039,0.7036,0.7037,0.7035,0.7029,0.7029,0.7026,0.7022,0.7021,0.7018,0.7017,0.7014,0.7013,0.7011,0.7004,0.7001,0.7005,0.6999,0.7003,0.7003,0.7005,0.7005,0.702,0.7003,0.7003,0.7003,0.7003,0,0.7049,0.7051,0.7042,0.7043,0.7045,0.7038,0.704,0.7036,0.7032,0.7032,0.7025,0.7025,0.7016,0.7015,0.701,0.7012,0.7011,0.7008,0.7007,0.7009,0.701,0.7009,0.7008,0.7004,0.7003,0.7003,0.7003,0,0.7063,0.7057,0.7058,0.7052,0.705,0.7052,0.7046,0.7047,0.7042,0.7042,0.7042,0.7035,0.7033,0.7027,0.7024,0.7021,0.7023,0.7021,0.7025,0.7024,0.7029,0.7029,0.7045,0.7047,0.7028,0.7029,0.7029,0,0.707,0.7072,0.7066,0.7065,0.7063,0.7062,0.7061,0.7054,0.7053,0.7048,0.7049,0.7047,0.7045,0.7044,0.7038,0.7036,0.7033,0.7039,0.7033,0.7035,0.7034,0.7034,0.7035,0.704,0.7041,0.7041,0.7041,0,0.7084,0.7081,0.708,0.7078,0.7077,0.7074,0.7072,0.7072,0.7064,0.7063,0.7062,0.706,0.7057,0.7056,0.7053,0.705,0.7044,0.7043,0.7044,0.7046,0.7049,0.7048,0.7029,0.7043,0.7043,0.7042,0.7042,0.7042,0.7095,0.7096,0.7092,0.7091,0.7089,0.7086,0.7087,0.7082,0.7081,0.7078,0.7074,0.7074,0.7069,0.7065,0.7062,0.7062,0.7058,0.706,0.706,0.7061,0.7062,0.7049,0.7061,0.7061,0.7061,0.7061,0.7061,0,0.7109,0.7107,0.7105,0.7102,0.7101,0.7096,0.7093,0.7093,0.7092,0.7089,0.7088,0.7086,0.7084,0.7079,0.7077,0.7077,0.7075,0.7077,0.7077,0.7077,0.7065,0.7064,0.7079,0.7079,0.7079,0.7079,0.7079,0.7079,0.7117,0.7118,0.7115,0.7115,0.7112,0.7111,0.711,0.7108,0.7106,0.7104,0.7103,0.71,0.7096,0.7093,0.7091,0.709,0.709,0.7093,0.7091,0.7079,0.7078,0.7076,0.7076,0.7093,0.7093,0.7103,0.7103,0.7103]}]]